QPF
0.00 0.00 0.00 0.00 0.00 0.00 0.00 0.00 0.00 0.00 0.00 0.00 0.00 0.01 0.01 0.00 0.00 0.00 0.00 0.00 0.01 0.01 0.02 0.03 0.02 0.02 0.01 0.01 0.01 0.01 0.02 0.04 0.05 0.05 0.05 0.05 0.05 0.05 0.04 0.02 0.01 0.01 0.02
0.00 0.00 0.00 0.00 0.00 0.00 0.00 0.00 0.00 0.00 0.00 0.00 0.01 0.01 0.00 0.00 0.00 0.00 0.00 0.00 0.00 0.01 0.01 0.02 0.02 0.02 0.02 0.01 0.02 0.02 0.03 0.04 0.04 0.05 0.06 0.05 0.05 0.05 0.05 0.03 0.02 0.02 0.03
0.00 0.00 0.00 0.00 0.00 0.00 0.00 0.00 0.00 0.00 0.01 0.00 0.00 0.00 0.00 0.00 0.00 0.00 0.01 0.01 0.01 0.00 0.00 0.01 0.01 0.02 0.02 0.02 0.03 0.02 0.03 0.03 0.04 0.05 0.06 0.05 0.05 0.06 0.05 0.04 0.03 0.03 0.02
0.00 0.00 0.00 0.00 0.00 0.00 0.00 0.00 0.00 0.00 0.00 0.00 0.00 0.00 0.00 0.00 0.00 0.00 0.00 0.01 0.01 0.01 0.01 0.01 0.01 0.01 0.02 0.02 0.03 0.02 0.02 0.03 0.04 0.06 0.10 0.13 0.07 0.07 0.07 0.05 0.03 0.02 0.02
0.00 0.00 0.00 0.00 0.00 0.00 0.00 0.00 0.00 0.00 0.01 0.00 0.00 0.00 0.00 0.00 0.00 0.00 0.00 0.00 0.01 0.01 0.01 0.00 0.01 0.01 0.01 0.02 0.02 0.02 0.02 0.02 0.04 0.08 0.12 0.12 0.07 0.06 0.07 0.06 0.04 0.03 0.03
0.00 0.00 0.00 0.00 0.00 0.00 0.00 0.00 0.00 0.00 0.01 0.01 0.00 0.00 0.00 0.00 0.00 0.00 0.00 0.00 0.00 0.00 0.01 0.00 0.00 0.01 0.02 0.02 0.02 0.02 0.01 0.01 0.02 0.05 0.07 0.11 0.05 0.05 0.05 0.05 0.04 0.03 0.02
0.00 0.00 0.00 0.00 0.00 0.00 0.00 0.00 0.00 0.01 0.01 0.01 0.00 0.00 0.00 0.00 0.00 0.00 0.00 0.00 0.00 0.00 0.00 0.00 0.00 0.01 0.02 0.02 0.02 0.02 0.01 0.02 0.02 0.04 0.04 0.06 0.03 0.05 0.05 0.04 0.03 0.02 0.01
0.00 0.00 0.00 0.00 0.00 0.00 0.00 0.00 0.01 0.01 0.01 0.01 0.00 0.00 0.00 0.00 0.00 0.00 0.00 0.00 0.00 0.00 0.00 0.00 0.00 0.00 0.00 0.01 0.01 0.01 0.01 0.04 0.05 0.03 0.02 0.02 0.04 0.04 0.03 0.02 0.02 0.01 0.02
0.00 0.00 0.00 0.00 0.00 0.00 0.00 0.00 0.01 0.02 0.02 0.01 0.01 0.00 0.00 0.00 0.00 0.01 0.00 0.00 0.00 0.00 0.00 0.00 0.00 0.00 0.00 0.00 0.00 0.01 0.02 0.04 0.04 0.02 0.01 0.02 0.04 0.03 0.02 0.01 0.01 0.01 0.01
0.00 0.00 0.00 0.00 0.00 0.01 0.01 0.01 0.02 0.02 0.02 0.03 0.02 0.01 0.00 0.00 0.00 0.00 0.00 0.00 0.00 0.00 0.00 0.00 0.00 0.00 0.00 0.00 0.00 0.01 0.01 0.02 0.01 0.01 0.01 0.02 0.03 0.02 0.01 0.01 0.01 0.01 0.01
0.00 0.00 0.00 0.00 0.00 0.00 0.00 0.01 0.02 0.03 0.03 0.03 0.02 0.01 0.00 0.00 0.00 0.00 0.00 0.00 0.00 0.00 0.00 0.00 0.00 0.00 0.00 0.00 0.00 0.00 0.01 0.01 0.01 0.01 0.00 0.02 0.02 0.01 0.00 0.00 0.00 0.00 0.00
0.00 0.00 0.00 0.00 0.01 0.00 0.00 0.01 0.01 0.01 0.01 0.01 0.00 0.00 0.00 0.00 0.01 0.00 0.00 0.00 0.00 0.00 0.00 0.00 0.00 0.00 0.00 0.00 0.00 0.00 0.00 0.00 0.01 0.02 0.01 0.01 0.00 0.00 0.00 0.00 0.00 0.00 0.00
0.00 0.00 0.00 0.00 0.00 0.00 0.00 0.00 0.01 0.00 0.00 0.01 0.00 0.00 0.01 0.02 0.01 0.00 0.00 0.00 0.00 0.00 0.00 0.00 0.00 0.00 0.00 0.00 0.00 0.00 0.00 0.00 0.02 0.01 0.01 0.00 0.00 0.00 0.00 0.00 0.00 0.00 0.00
0.00 0.00 0.00 0.00 0.00 0.00 0.00 0.00 0.00 0.00 0.00 0.00 0.00 0.01 0.02 0.02 0.01 0.00 0.00 0.00 0.00 0.00 0.00 0.00 0.00 0.00 0.00 0.00 0.00 0.00 0.00 0.00 0.00 0.00 0.00 0.00 0.00 0.00 0.00 0.00 0.00 0.00 0.00
0.01 0.00 0.00 0.00 0.00 0.00 0.00 0.00 0.00 0.00 0.00 0.00 0.00 0.01 0.04 0.03 0.02 0.01 0.00 0.00 0.00 0.00 0.00 0.00 0.00 0.00 0.00 0.00 0.00 0.00 0.00 0.00 0.00 0.00 0.00 0.00 0.00 0.00 0.00 0.00 0.00 0.00 0.00
0.03 0.02 0.01 0.01 0.01 0.00 0.00 0.00 0.00 0.00 0.00 0.00 0.00 0.01 0.05 0.06 0.02 0.01 0.00 0.00 0.00 0.00 0.00 0.00 0.00 0.00 0.00 0.00 0.00 0.00 0.00 0.00 0.00 0.00 0.00 0.00 0.00 0.00 0.00 0.00 0.00 0.00 0.00
0.08 0.06 0.05 0.05 0.04 0.02 0.01 0.00 0.00 0.00 0.00 0.00 0.00 0.00 0.03 0.05 0.03 0.02 0.01 0.00 0.00 0.00 0.00 0.00 0.00 0.00 0.00 0.00 0.00 0.00 0.00 0.00 0.00 0.00 0.00 0.00 0.00 0.00 0.00 0.00 0.00 0.00 0.00
0.11 0.10 0.10 0.10 0.08 0.06 0.04 0.03 0.01 0.00 0.00 0.00 0.00 0.00 0.01 0.03 0.04 0.03 0.01 0.01 0.00 0.00 0.00 0.00 0.00 0.00 0.00 0.00 0.00 0.00 0.00 0.00 0.00 0.00 0.00 0.00 0.00 0.00 0.00 0.00 0.00 0.00 0.00
0.14 0.13 0.12 0.12 0.10 0.09 0.09 0.09 0.06 0.03 0.02 0.01 0.01 0.01 0.01 0.03 0.05 0.04 0.02 0.01 0.01 0.00 0.00 0.00 0.00 0.00 0.00 0.00 0.00 0.00 0.00 0.00 0.00 0.00 0.00 0.00 0.00 0.00 0.00 0.00 0.00 0.00 0.00
0.10 0.13 0.14 0.15 0.14 0.11 0.11 0.15 0.16 0.12 0.08 0.05 0.04 0.03 0.03 0.04 0.06 0.07 0.05 0.02 0.01 0.00 0.00 0.00 0.00 0.00 0.00 0.00 0.00 0.00 0.00 0.00 0.00 0.00 0.00 0.00 0.00 0.00 0.00 0.00 0.00 0.00 0.00
0.04 0.07 0.11 0.15 0.17 0.15 0.11 0.14 0.19 0.19 0.18 0.17 0.14 0.10 0.08 0.07 0.07 0.09 0.09 0.05 0.02 0.01 0.00 0.01 0.01 0.01 0.01 0.01 0.01 0.01 0.00 0.00 0.00 0.00 0.00 0.00 0.00 0.00 0.00 0.00 0.00 0.00 0.00
0.02 0.03 0.07 0.11 0.14 0.14 0.12 0.13 0.22 0.34 0.42 0.43 0.38 0.29 0.22 0.15 0.13 0.12 0.13 0.11 0.07 0.04 0.03 0.04 0.04 0.06 0.05 0.04 0.04 0.03 0.01 0.00 0.00 0.00 0.00 0.00 0.00 0.00 0.00 0.00 0.00 0.00 0.00
0.00 0.01 0.02 0.04 0.08 0.11 0.11 0.14 0.28 0.53 0.73 0.73 0.63 0.55 0.46 0.36 0.29 0.23 0.21 0.20 0.15 0.11 0.09 0.07 0.07 0.10 0.11 0.09 0.07 0.07 0.03 0.01 0.00 0.00 0.00 0.00 0.00 0.00 0.00 0.00 0.00 0.00 0.00
0.00 0.00 0.01 0.01 0.03 0.06 0.08 0.15 0.29 0.50 0.79 0.94 1.00 0.98 0.90 0.76 0.55 0.39 0.32 0.27 0.26 0.22 0.20 0.15 0.12 0.13 0.13 0.12 0.09 0.06 0.07 0.05 0.02 0.00 0.00 0.00 0.00 0.00 0.00 0.00 0.00 0.00 0.00
0.00 0.00 0.00 0.00 0.01 0.02 0.04 0.09 0.19 0.30 0.44 0.65 0.88 0.95 0.96 0.88 0.73 0.52 0.37 0.28 0.26 0.24 0.23 0.22 0.20 0.20 0.21 0.20 0.17 0.11 0.08 0.08 0.06 0.02 0.00 0.00 0.00 0.00 0.00 0.00 0.00 0.00 0.00
0.00 0.00 0.00 0.00 0.00 0.00 0.02 0.04 0.10 0.18 0.27 0.39 0.54 0.65 0.76 0.79 0.77 0.64 0.46 0.32 0.24 0.20 0.19 0.21 0.26 0.26 0.26 0.25 0.22 0.15 0.10 0.06 0.04 0.03 0.01 0.00 0.00 0.00 0.00 0.00 0.00 0.00 0.00
MSLP
1013.81 1013.39 1013.12 1013.06 1013.17 1013.43 1013.74 1014.03 1014.23 1014.32 1014.30 1014.21 1014.12 1014.06 1014.07 1014.16 1014.30 1014.47 1014.62 1014.71 1014.73 1014.70 1014.64 1014.58 1014.55 1014.58 1014.65 1014.77 1014.91 1015.04 1015.14 1015.22 1015.27 1015.30 1015.32 1015.34 1015.36 1015.37 1015.35 1015.31 1015.24 1015.16 1015.09
1013.61 1013.31 1013.15 1013.16 1013.32 1013.58 1013.88 1014.14 1014.31 1014.39 1014.38 1014.33 1014.29 1014.30 1014.37 1014.50 1014.66 1014.81 1014.93 1014.98 1014.97 1014.92 1014.86 1014.80 1014.79 1014.82 1014.88 1014.98 1015.08 1015.16 1015.22 1015.27 1015.30 1015.34 1015.39 1015.45 1015.50 1015.54 1015.54 1015.51 1015.44 1015.35 1015.26
1013.36 1013.19 1013.14 1013.24 1013.46 1013.75 1014.04 1014.28 1014.44 1014.51 1014.52 1014.51 1014.52 1014.58 1014.70 1014.85 1015.01 1015.13 1015.20 1015.21 1015.16 1015.09 1015.02 1014.98 1014.97 1015.02 1015.09 1015.16 1015.23 1015.28 1015.31 1015.33 1015.36 1015.41 1015.48 1015.57 1015.66 1015.72 1015.75 1015.73 1015.67 1015.57 1015.48
1013.09 1013.04 1013.10 1013.30 1013.59 1013.92 1014.22 1014.45 1014.60 1014.68 1014.70 1014.73 1014.78 1014.88 1015.01 1015.17 1015.31 1015.39 1015.41 1015.37 1015.29 1015.20 1015.12 1015.10 1015.12 1015.18 1015.26 1015.34 1015.40 1015.42 1015.43 1015.44 1015.46 1015.52 1015.61 1015.73 1015.84 1015.93 1015.98 1015.97 1015.91 1015.82 1015.73
1012.83 1012.88 1013.06 1013.35 1013.71 1014.07 1014.39 1014.63 1014.78 1014.85 1014.88 1014.93 1015.00 1015.12 1015.27 1015.42 1015.53 1015.58 1015.55 1015.47 1015.36 1015.26 1015.19 1015.18 1015.23 1015.32 1015.43 1015.52 1015.57 1015.60 1015.60 1015.60 1015.63 1015.69 1015.80 1015.92 1016.05 1016.15 1016.20 1016.20 1016.14 1016.06 1015.98
1012.60 1012.75 1013.01 1013.38 1013.80 1014.20 1014.53 1014.77 1014.91 1014.97 1015.01 1015.07 1015.16 1015.28 1015.44 1015.58 1015.67 1015.69 1015.64 1015.53 1015.41 1015.31 1015.26 1015.27 1015.35 1015.47 1015.60 1015.71 1015.77 1015.80 1015.81 1015.82 1015.85 1015.91 1016.02 1016.14 1016.26 1016.35 1016.40 1016.39 1016.34 1016.26 1016.19
1012.44 1012.64 1012.97 1013.39 1013.84 1014.27 1014.60 1014.83 1014.96 1015.02 1015.05 1015.11 1015.21 1015.35 1015.51 1015.65 1015.74 1015.75 1015.69 1015.59 1015.47 1015.38 1015.35 1015.39 1015.50 1015.64 1015.78 1015.91 1015.99 1016.03 1016.04 1016.06 1016.09 1016.16 1016.25 1016.36 1016.46 1016.53 1016.55 1016.53 1016.47 1016.40 1016.33
1012.34 1012.57 1012.93 1013.38 1013.84 1014.26 1014.59 1014.80 1014.91 1014.95 1014.99 1015.05 1015.16 1015.32 1015.50 1015.66 1015.76 1015.80 1015.76 1015.67 1015.57 1015.50 1015.49 1015.55 1015.67 1015.82 1015.97 1016.10 1016.19 1016.24 1016.27 1016.29 1016.33 1016.39 1016.47 1016.55 1016.62 1016.66 1016.65 1016.60 1016.53 1016.45 1016.40
1012.30 1012.53 1012.88 1013.32 1013.77 1014.17 1014.47 1014.66 1014.75 1014.79 1014.83 1014.90 1015.04 1015.22 1015.43 1015.62 1015.77 1015.84 1015.83 1015.78 1015.71 1015.67 1015.67 1015.73 1015.85 1015.99 1016.14 1016.26 1016.35 1016.40 1016.43 1016.46 1016.50 1016.56 1016.62 1016.68 1016.72 1016.72 1016.69 1016.61 1016.53 1016.45 1016.40
1012.26 1012.48 1012.82 1013.23 1013.64 1014.00 1014.27 1014.43 1014.51 1014.55 1014.60 1014.70 1014.87 1015.09 1015.34 1015.58 1015.76 1015.88 1015.92 1015.90 1015.87 1015.84 1015.85 1015.91 1016.00 1016.13 1016.25 1016.35 1016.43 1016.48 1016.52 1016.55 1016.60 1016.65 1016.70 1016.75 1016.76 1016.74 1016.68 1016.59 1016.49 1016.41 1016.36
1012.22 1012.41 1012.71 1013.07 1013.44 1013.76 1013.98 1014.13 1014.21 1014.26 1014.34 1014.48 1014.69 1014.95 1015.24 1015.52 1015.74 1015.90 1015.98 1016.00 1015.98 1015.97 1015.98 1016.03 1016.10 1016.20 1016.29 1016.37 1016.43 1016.48 1016.52 1016.55 1016.60 1016.65 1016.71 1016.74 1016.75 1016.72 1016.65 1016.56 1016.46 1016.38 1016.34
1012.14 1012.29 1012.55 1012.86 1013.17 1013.44 1013.64 1013.77 1013.86 1013.95 1014.07 1014.25 1014.50 1014.81 1015.13 1015.44 1015.69 1015.87 1015.98 1016.02 1016.03 1016.02 1016.03 1016.06 1016.12 1016.19 1016.26 1016.32 1016.36 1016.40 1016.44 1016.48 1016.53 1016.59 1016.64 1016.68 1016.69 1016.67 1016.62 1016.54 1016.46 1016.39 1016.36
1012.01 1012.14 1012.35 1012.60 1012.85 1013.07 1013.25 1013.38 1013.49 1013.62 1013.79 1014.02 1014.31 1014.65 1014.99 1015.31 1015.58 1015.77 1015.88 1015.94 1015.96 1015.96 1015.98 1016.00 1016.05 1016.11 1016.16 1016.21 1016.25 1016.29 1016.33 1016.37 1016.42 1016.48 1016.55 1016.59 1016.62 1016.61 1016.58 1016.53 1016.48 1016.44 1016.42
1011.88 1011.97 1012.12 1012.31 1012.50 1012.68 1012.83 1012.96 1013.10 1013.28 1013.49 1013.77 1014.10 1014.45 1014.80 1015.12 1015.37 1015.56 1015.68 1015.74 1015.77 1015.79 1015.82 1015.86 1015.92 1015.98 1016.05 1016.10 1016.15 1016.18 1016.22 1016.27 1016.32 1016.38 1016.44 1016.49 1016.53 1016.55 1016.55 1016.54 1016.52 1016.52 1016.52
1011.80 1011.83 1011.92 1012.03 1012.15 1012.28 1012.40 1012.54 1012.70 1012.91 1013.17 1013.48 1013.83 1014.19 1014.52 1014.82 1015.06 1015.24 1015.35 1015.42 1015.48 1015.53 1015.59 1015.67 1015.76 1015.85 1015.94 1016.01 1016.08 1016.12 1016.16 1016.20 1016.24 1016.29 1016.35 1016.40 1016.45 1016.48 1016.52 1016.54 1016.56 1016.59 1016.63
1011.82 1011.79 1011.80 1011.82 1011.86 1011.91 1012.00 1012.12 1012.29 1012.52 1012.80 1013.13 1013.48 1013.83 1014.14 1014.42 1014.64 1014.80 1014.92 1015.01 1015.10 1015.20 1015.32 1015.45 1015.60 1015.74 1015.87 1015.98 1016.07 1016.13 1016.17 1016.20 1016.23 1016.26 1016.30 1016.33 1016.37 1016.41 1016.46 1016.51 1016.57 1016.63 1016.71
1012.01 1011.90 1011.80 1011.72 1011.65 1011.62 1011.64 1011.73 1011.88 1012.10 1012.38 1012.70 1013.04 1013.37 1013.66 1013.91 1014.12 1014.28 1014.42 1014.55 1014.70 1014.86 1015.04 1015.25 1015.46 1015.67 1015.85 1016.00 1016.12 1016.20 1016.25 1016.27 1016.28 1016.29 1016.29 1016.30 1016.32 1016.35 1016.39 1016.45 1016.53 1016.62 1016.72
1012.40 1012.19 1011.97 1011.76 1011.58 1011.44 1011.38 1011.39 1011.49 1011.68 1011.93 1012.22 1012.53 1012.83 1013.10 1013.34 1013.54 1013.72 1013.90 1014.09 1014.30 1014.53 1014.80 1015.08 1015.36 1015.62 1015.86 1016.05 1016.20 1016.30 1016.36 1016.39 1016.39 1016.36 1016.34 1016.31 1016.29 1016.29 1016.31 1016.36 1016.44 1016.55 1016.67
1012.97 1012.65 1012.31 1011.96 1011.65 1011.39 1011.22 1011.14 1011.16 1011.28 1011.48 1011.72 1011.98 1012.24 1012.50 1012.73 1012.95 1013.17 1013.40 1013.65 1013.94 1014.25 1014.58 1014.93 1015.27 1015.58 1015.86 1016.10 1016.28 1016.41 1016.49 1016.52 1016.52 1016.48 1016.43 1016.36 1016.31 1016.26 1016.25 1016.27 1016.33 1016.43 1016.56
1013.68 1013.24 1012.77 1012.29 1011.85 1011.46 1011.17 1010.98 1010.91 1010.94 1011.06 1011.23 1011.45 1011.68 1011.91 1012.15 1012.40 1012.66 1012.95 1013.27 1013.63 1014.00 1014.40 1014.79 1015.17 1015.52 1015.83 1016.09 1016.31 1016.47 1016.58 1016.64 1016.65 1016.62 1016.56 1016.47 1016.38 1016.29 1016.23 1016.21 1016.23 1016.31 1016.43
1014.42 1013.88 1013.31 1012.71 1012.15 1011.64 1011.24 1010.94 1010.76 1010.69 1010.72 1010.83 1010.98 1011.18 1011.40 1011.65 1011.93 1012.24 1012.59 1012.97 1013.38 1013.80 1014.23 1014.65 1015.04 1015.40 1015.73 1016.01 1016.25 1016.45 1016.60 1016.71 1016.76 1016.76 1016.71 1016.62 1016.50 1016.37 1016.27 1016.19 1016.17 1016.20 1016.31
1015.12 1014.50 1013.84 1013.16 1012.50 1011.90 1011.39 1011.00 1010.72 1010.56 1010.51 1010.54 1010.64 1010.80 1011.02 1011.28 1011.58 1011.93 1012.33 1012.75 1013.19 1013.64 1014.08 1014.49 1014.87 1015.23 1015.55 1015.84 1016.11 1016.35 1016.55 1016.72 1016.83 1016.88 1016.87 1016.79 1016.67 1016.52 1016.36 1016.23 1016.15 1016.14 1016.20
1015.68 1015.02 1014.31 1013.57 1012.85 1012.19 1011.62 1011.15 1010.80 1010.57 1010.44 1010.42 1010.47 1010.60 1010.80 1011.06 1011.39 1011.76 1012.18 1012.62 1013.07 1013.51 1013.93 1014.32 1014.67 1015.00 1015.30 1015.60 1015.88 1016.16 1016.43 1016.66 1016.85 1016.97 1017.01 1016.97 1016.85 1016.69 1016.50 1016.32 1016.18 1016.11 1016.13
1016.08 1015.40 1014.67 1013.92 1013.18 1012.49 1011.88 1011.38 1010.98 1010.70 1010.53 1010.46 1010.49 1010.59 1010.78 1011.03 1011.36 1011.73 1012.15 1012.58 1013.01 1013.42 1013.80 1014.14 1014.45 1014.74 1015.02 1015.31 1015.61 1015.92 1016.24 1016.55 1016.80 1017.00 1017.10 1017.10 1017.01 1016.85 1016.64 1016.41 1016.23 1016.10 1016.07
1016.32 1015.64 1014.93 1014.19 1013.46 1012.78 1012.18 1011.67 1011.26 1010.96 1010.77 1010.68 1010.68 1010.76 1010.93 1011.17 1011.48 1011.84 1012.22 1012.62 1013.01 1013.38 1013.70 1013.99 1014.25 1014.49 1014.74 1015.02 1015.32 1015.66 1016.02 1016.38 1016.70 1016.95 1017.12 1017.17 1017.11 1016.95 1016.73 1016.48 1016.25 1016.08 1015.99
1016.45 1015.80 1015.11 1014.40 1013.71 1013.06 1012.48 1012.00 1011.60 1011.31 1011.12 1011.03 1011.01 1011.09 1011.23 1011.45 1011.72 1012.04 1012.39 1012.73 1013.07 1013.37 1013.64 1013.87 1014.08 1014.28 1014.50 1014.76 1015.05 1015.40 1015.78 1016.16 1016.52 1016.83 1017.03 1017.12 1017.10 1016.96 1016.74 1016.48 1016.22 1016.01 1015.88
Thickness
5798 5799 5798 5796 5794 5792 5790 5788 5787 5785 5784 5782 5781 5780 5779 5778 5777 5776 5775 5774 5774 5773 5772 5772 5772 5772 5772 5772 5773 5773 5774 5774 5775 5777 5778 5778 5779 5780 5780 5780 5780 5780 5780
5804 5802 5799 5797 5796 5794 5792 5790 5788 5786 5785 5783 5782 5781 5780 5778 5777 5776 5775 5775 5774 5774 5773 5773 5772 5772 5772 5771 5771 5771 5772 5772 5773 5775 5775 5775 5776 5776 5776 5777 5777 5777 5777
5806 5803 5800 5799 5797 5795 5794 5792 5790 5788 5786 5784 5783 5782 5780 5779 5777 5776 5775 5775 5774 5774 5773 5773 5772 5771 5771 5770 5770 5769 5770 5771 5772 5773 5773 5773 5773 5773 5773 5773 5774 5774 5774
5808 5804 5802 5800 5798 5796 5795 5793 5792 5790 5788 5786 5784 5783 5781 5780 5778 5777 5776 5775 5774 5773 5773 5772 5771 5770 5769 5769 5768 5768 5768 5769 5770 5771 5771 5770 5770 5769 5769 5769 5770 5770 5771
5808 5805 5803 5801 5799 5797 5796 5795 5793 5791 5789 5787 5785 5784 5782 5780 5779 5777 5776 5775 5774 5773 5772 5771 5770 5769 5768 5767 5767 5767 5767 5767 5768 5768 5768 5768 5767 5766 5766 5766 5767 5767 5767
5808 5805 5803 5801 5799 5798 5797 5795 5794 5792 5790 5788 5786 5784 5783 5781 5779 5777 5776 5775 5774 5773 5772 5771 5770 5768 5767 5766 5765 5765 5765 5765 5766 5766 5766 5765 5764 5764 5764 5764 5764 5764 5765
5809 5806 5804 5802 5800 5798 5797 5796 5794 5793 5790 5788 5787 5785 5783 5781 5779 5777 5776 5775 5773 5773 5772 5770 5769 5768 5767 5766 5764 5764 5763 5763 5763 5764 5763 5763 5762 5762 5762 5762 5762 5762 5762
5811 5807 5805 5803 5801 5799 5798 5796 5795 5793 5791 5789 5787 5786 5784 5782 5780 5778 5776 5775 5773 5772 5772 5771 5770 5769 5767 5765 5764 5763 5762 5762 5762 5762 5761 5761 5761 5760 5760 5760 5760 5760 5760
5812 5809 5806 5804 5802 5800 5799 5797 5795 5794 5792 5790 5788 5786 5785 5783 5781 5779 5777 5775 5774 5773 5772 5771 5770 5769 5768 5766 5764 5763 5762 5761 5761 5760 5760 5760 5760 5760 5759 5759 5759 5759 5759
5812 5810 5808 5806 5804 5802 5800 5798 5796 5794 5792 5791 5789 5787 5785 5783 5781 5779 5777 5776 5774 5773 5772 5771 5770 5769 5768 5767 5765 5763 5761 5760 5760 5760 5759 5759 5759 5759 5759 5759 5759 5759 5758
5809 5809 5808 5807 5805 5803 5801 5799 5797 5795 5793 5791 5790 5788 5785 5783 5781 5779 5777 5775 5774 5773 5772 5771 5770 5769 5768 5767 5766 5764 5761 5760 5759 5758 5758 5758 5758 5758 5758 5758 5758 5758 5757
5806 5808 5809 5808 5806 5803 5801 5800 5798 5796 5794 5792 5790 5788 5786 5783 5781 5779 5777 5775 5774 5773 5772 5770 5770 5769 5768 5767 5766 5764 5761 5760 5759 5758 5757 5757 5757 5757 5757 5757 5757 5757 5757
5813 5811 5811 5809 5807 5805 5802 5800 5797 5795 5793 5791 5790 5788 5785 5782 5780 5778 5776 5775 5773 5772 5771 5770 5769 5768 5767 5766 5765 5763 5761 5760 5759 5758 5757 5757 5757 5757 5756 5756 5756 5756 5756
5815 5815 5815 5812 5809 5806 5804 5801 5797 5795 5792 5790 5788 5786 5783 5780 5778 5777 5775 5773 5772 5771 5770 5769 5767 5766 5766 5765 5764 5762 5760 5759 5758 5757 5756 5756 5756 5756 5756 5756 5755 5755 5754
5814 5816 5817 5815 5812 5808 5805 5801 5798 5796 5793 5791 5788 5785 5783 5780 5777 5775 5773 5772 5770 5769 5769 5767 5765 5764 5764 5764 5764 5762 5759 5757 5756 5756 5755 5755 5755 5755 5755 5754 5754 5753 5752
5807 5810 5813 5814 5813 5810 5806 5803 5800 5797 5794 5791 5788 5786 5783 5780 5777 5774 5772 5770 5768 5768 5767 5766 5764 5763 5762 5762 5762 5760 5758 5756 5754 5754 5753 5753 5752 5752 5752 5752 5751 5751 5750
5796 5800 5804 5807 5808 5808 5806 5804 5802 5798 5794 5792 5789 5786 5783 5780 5777 5774 5770 5769 5767 5766 5765 5763 5761 5760 5759 5759 5759 5758 5755 5754 5753 5752 5751 5750 5749 5749 5749 5749 5749 5748 5747
5785 5788 5792 5797 5799 5800 5801 5802 5801 5798 5795 5792 5790 5787 5784 5781 5778 5775 5771 5768 5767 5764 5763 5760 5758 5756 5755 5755 5754 5753 5752 5751 5750 5749 5747 5747 5746 5745 5745 5745 5745 5744 5743
5773 5776 5779 5783 5788 5792 5794 5795 5796 5796 5793 5791 5789 5787 5783 5780 5777 5774 5772 5770 5767 5763 5761 5758 5756 5753 5750 5749 5749 5748 5747 5747 5747 5746 5744 5743 5742 5741 5741 5741 5740 5740 5738
5762 5764 5767 5771 5775 5781 5785 5786 5786 5787 5788 5787 5786 5784 5782 5778 5774 5771 5768 5767 5765 5761 5757 5755 5751 5749 5746 5744 5744 5741 5741 5742 5743 5742 5741 5740 5739 5738 5737 5737 5736 5735 5734
5748 5751 5754 5758 5763 5768 5771 5774 5775 5777 5779 5780 5780 5779 5777 5774 5770 5767 5764 5762 5760 5757 5754 5751 5746 5742 5739 5739 5734 5731 5732 5735 5736 5738 5738 5738 5736 5735 5734 5733 5731 5730 5729
5731 5735 5740 5745 5751 5756 5760 5764 5768 5771 5773 5773 5773 5770 5768 5766 5764 5763 5758 5755 5754 5751 5748 5746 5742 5736 5733 5733 5728 5721 5717 5720 5727 5732 5733 5734 5734 5733 5731 5729 5727 5725 5724
5715 5720 5726 5731 5738 5745 5751 5756 5761 5763 5763 5763 5760 5760 5758 5756 5755 5754 5751 5749 5747 5744 5740 5739 5738 5733 5727 5726 5726 5719 5710 5707 5714 5722 5726 5728 5729 5729 5728 5727 5724 5722 5720
5699 5706 5712 5719 5726 5734 5740 5745 5749 5751 5752 5755 5755 5752 5749 5746 5745 5744 5742 5740 5739 5737 5733 5732 5733 5730 5725 5719 5719 5719 5717 5714 5708 5708 5715 5720 5722 5723 5724 5724 5723 5719 5717
5686 5693 5700 5707 5715 5723 5730 5735 5740 5744 5748 5750 5750 5748 5744 5740 5737 5735 5733 5732 5730 5729 5727 5726 5725 5724 5722 5718 5714 5713 5711 5710 5709 5704 5703 5708 5713 5716 5718 5719 5720 5718 5714
5674 5681 5689 5696 5704 5712 5718 5725 5730 5735 5739 5740 5741 5740 5738 5734 5731 5729 5726 5724 5723 5721 5720 5719 5719 5717 5716 5714 5711 5709 5707 5704 5703 5702 5699 5700 5703 5708 5712 5713 5714 5714 5713